{"data":{"norad_id":58915,"intl_designator":"2024-023L","name":"GEESAT-2 11","alt_names":[],"object_type":"PAYLOAD","status":"ACTIVE","operator":null,"country":"PRC","launch_date":"2024-02-02","launch_site_code":"XICLF","launch_vehicle":null,"mission":null,"orbit_class":"UNKNOWN","rcs_meters":null,"size_class":null,"mass_kg":null,"dimensions":null,"purposes":[],"wikipedia_slug":null,"has_3d_model":false,"image_url":null,"decayed_at":null,"tle_current":{"epoch":"2026-05-25T04:34:07.566240Z","epoch_age_seconds":61892,"freshness":"FRESH","line1":"1 58915U 24023L   26145.19036535  .00001489  00000+0  20796-3 0  9997","line2":"2 58915  49.9995 100.4787 0019537  23.5522 336.6306 14.83142500125504","mean_motion":14.831425,"eccentricity":0.0019537,"inclination_deg":49.9995,"raan_deg":100.4787,"arg_perigee_deg":23.5522,"mean_anomaly_deg":336.6306,"bstar":0.00020796,"rev_number":12550,"period_min":97.091142624529,"perigee_km":605.75117629635,"apogee_km":633.0934395361,"semimajor_km":6997.5593079162,"source":"CELESTRAK","updated_at":"2026-05-25T13:38:01.077715Z"}}}